map of CNX home
Great Circle Mapper logo
CNX - Airport
Location
City:  Chiang Mai, Thailand
Name:Chiang Mai International Airport
ICAO / IATA:VTCC / CNX

Details
Type:Airport (Aerodrome, Airfield)
Use:Public/Civil, Military, International (customs port of entry)
Latitude:1846'01"N (18.766847)
Longitude:9857'46"E (98.962644)
Datum:WGS 1984
Elevation:1036 ft (316 m)
Variation:0.77W (WMM2015 magnetic declination)
0.01 annual change
Runways:1
Longest:10171 × 148 ft (3100 × 45 m), paved

Time
Time Zone:UTC+7
Local Time:

Weather
METAR:VTCC 281530Z 03011KT 9999 SCT035 28/18 Q1013 A2991 NOSIG
TAF:VTCC 280500Z 2806/2912 22005KT 9000 SCT035
TEMPO 2809/2815 VRB15G30KT 3500 TSRA FEW020CB BKN025
BECMG 2817/2819 20005KT 7000 SCT035

Related Locations
Nearby:
Farthest:SJA: 11988 mi / 19293 km
San Juan de Marcona [San Juan de Marcona Airport], ICA, PE

Find:

   beyond  
but within

Other Information
Maps:
NOTAMs:
Links:
Sources:

  
flag of Thailand   

Sectional Chart

Flight Planning
at skyvector.com

Satellite Image

Google Maps Satellite View

 

Copyright © 2004-2015 Karl L. Swartz. All rights reserved.
The Great Circle Mapper name and logo are trademarks of the Great Circle Mapper.
All other trademarks mentioned herein belong to their respective owners.
Please see credits for attibutions and further copyright information.

  Follow gcmap on Facebook Follow gcmap on Twitter Follow gcmap on Google+

hCard Microformat

Geo Microformat